EHI
1 0 0 0 1 2 2 2 1 0 0 0 0 0 1 1 1 0 0 0 0 0 0 0 0 0 0 0 0 0 0 0 0 0 0 0 0 0
2 1 0 0 0 2 2 2 1 0 0 0 0 0 1 1 0 0 0 0 0 0 0 0 0 0 0 0 0 0 0 0 0 0 0 0 0 0
2 1 0 0 1 2 2 1 1 0 0 0 0 1 1 1 1 1 1 0 0 0 0 0 0 0 0 0 0 0 0 0 0 0 0 0 0 0
1 0 0 1 2 2 1 0 0 0 0 0 0 1 2 3 3 2 1 0 0 0 0 0 0 0 0 0 0 0 0 0 0 0 0 0 0 0
0 0 0 1 2 3 2 1 1 1 1 0 0 1 2 4 5 3 1 0 0 0 0 0 0 0 0 0 0 0 0 0 0 0 0 0 0 0
0 0 0 1 2 3 3 2 2 2 2 1 1 1 2 5 5 3 1 0 0 0 0 0 0 0 0 0 0 0 0 0 0 0 0 0 0 0
0 1 1 0 1 2 2 2 3 3 3 3 2 2 2 4 4 2 1 0 0 0 0 0 0 0 0 0 0 0 0 0 0 0 0 0 0 0
1 2 2 1 0 0 0 1 1 2 3 3 2 2 2 3 4 2 0 0 0 0 0 0 0 0 0 0 0 0 0 0 0 0 0 0 0 0
2 3 3 1 1 1 1 0 0 1 1 2 1 1 1 2 3 2 0 0 0 0 0 0 0 0 0 0 0 0 0 0 0 0 0 0 0 0
1 2 3 2 2 2 2 1 1 1 0 1 1 1 0 1 2 2 0 0 0 0 0 0 0 0 0 0 0 0 0 0 0 0 0 0 0 0
0 1 2 2 1 1 2 2 2 2 1 0 0 0 0 0 1 1 0 0 0 0 0 0 0 0 0 0 0 0 0 0 0 0 0 0 0 0
0 0 1 1 0 1 2 2 2 2 1 0 0 0 0 0 0 0 0 0 0 0 0 0 0 0 0 0 0 0 0 0 0 0 0 0 0 0
0 0 0 0 0 0 1 1 1 1 1 0 0 0 0 0 0 0 0 0 0 0 0 0 0 0 0 0 0 0 0 0 0 0 0 0 0 0
0 0 0 0 0 0 0 0 0 0 0 0 0 0 0 0 0 0 0 0 0 0 0 0 0 0 0 0 0 0 0 0 0 0 0 0 0 0
0 0 0 0 0 0 0 0 0 0 0 0 0 0 0 0 0 0 0 0 0 0 0 0 0 0 0 0 0 0 0 0 0 0 0 0 0 0
0 0 0 0 0 0 0 0 0 0 0 0 0 0 0 0 0 0 0 0 0 0 0 0 0 0 0 0 0 0 0 0 0 0 0 0 0 0
0 0 0 0 0 0 0 0 0 0 0 0 0 0 0 0 0 0 0 0 0 0 0 0 0 0 0 0 0 0 0 0 0 0 0 0 0 0
0 0 0 0 0 0 0 0 0 0 0 0 0 0 0 0 0 0 0 0 0 0 0 0 0 0 0 0 0 0 0 0 0 0 0 0 0 0
0 0 0 0 0 0 0 0 0 0 0 0 0 0 0 0 0 0 0 0 0 0 0 0 0 0 0 0 0 0 0 0 0 0 0 0 0 0
0 0 0 0 0 0 0 0 0 0 0 0 0 0 0 0 0 0 0 0 0 0 0 0 0 0 0 0 0 0 0 0 0 0 0 0 0 0
0 0 0 0 0 0 0 0 0 0 0 0 0 0 0 0 0 0 0 0 0 0 0 0 0 0 0 0 0 0 0 0 0 0 0 0 0 0
0 0 0 0 0 0 0 0 0 0 0 0 0 0 0 0 0 0 0 0 0 0 0 0 0 0 0 0 0 0 0 0 0 0 0 0 0 0
0 0 0 0 0 0 0 0 0 0 0 0 0 0 0 0 0 0 0 0 0 0 0 0 0 0 0 0 0 0 0 0 0 0 0 0 0 0
Wind_Speed
5 5 5 5 5 5 5 6 7 8 7 5 5 4 5 5 3 6 7 6 8 9 9 9 9 9 10 9 9 8 8 9 11 12 13 13 13 14
4 5 6 6 5 5 6 6 6 7 8 6 6 6 5 6 5 7 8 7 10 11 10 10 10 10 10 10 10 9 9 9 10 12 13 14 14 13
5 6 6 7 6 6 6 6 6 6 8 8 7 6 6 7 5 7 7 7 7 10 11 10 10 10 10 10 10 10 10 10 10 11 12 13 13 14
6 6 7 6 6 6 5 6 6 7 8 9 7 6 7 7 6 7 7 7 6 6 10 11 11 11 11 10 10 10 10 10 11 11 11 12 13 14
6 7 7 7 7 6 6 6 6 6 6 7 8 6 6 5 6 7 7 6 7 5 8 11 12 12 12 11 11 11 11 11 11 11 11 11 12 13
6 6 6 6 6 7 6 7 7 7 7 7 7 6 5 5 5 5 6 5 6 6 5 6 8 12 13 13 12 12 11 12 12 12 12 11 11 12
6 6 5 4 5 6 6 7 7 6 6 6 6 6 5 5 5 5 6 6 6 5 5 6 5 7 8 11 12 12 12 12 12 13 12 12 12 12
5 5 5 4 3 4 6 7 8 8 7 7 7 7 6 6 5 6 6 6 6 4 5 6 6 6 7 7 8 10 12 12 12 12 12 12 12 12
5 5 5 5 5 6 5 6 6 6 7 8 9 9 8 7 7 8 6 7 7 5 5 7 6 6 6 5 6 10 11 12 12 12 12 12 12 12
4 4 5 6 6 7 8 7 7 6 5 6 7 9 9 7 7 8 8 8 8 6 5 6 6 6 6 5 7 9 11 12 12 12 11 11 11 12
3 3 4 5 7 8 8 7 8 7 5 5 7 9 9 9 8 7 7 7 7 6 4 5 6 6 6 6 5 10 11 12 12 12 11 11 11 11
3 2 4 5 6 7 7 7 8 8 9 8 6 6 7 6 7 6 6 6 6 6 4 4 5 5 5 5 4 4 6 9 12 12 11 11 11 9
5 4 4 4 5 6 7 6 7 9 9 8 6 6 5 4 4 4 4 5 6 6 4 4 5 5 5 5 4 4 4 4 5 7 10 11 12 11
5 5 5 5 6 7 5 5 8 8 6 6 6 6 6 6 5 6 6 6 6 7 7 6 6 5 6 6 5 4 4 4 4 4 5 8 10 11
4 4 5 5 7 4 3 5 6 5 5 6 6 6 6 6 6 5 6 5 6 6 6 5 6 5 6 6 6 5 4 4 4 4 5 5 6 7
4 3 4 5 4 4 3 3 4 5 6 6 7 7 6 6 6 5 6 6 5 5 4 5 5 6 6 6 5 5 5 4 4 4 4 4 5 6
7 5 5 5 5 5 5 6 6 6 6 6 7 7 7 7 6 6 5 6 6 6 5 4 4 4 5 5 5 5 5 4 4 4 4 4 4 5
6 5 5 6 7 6 6 6 6 6 7 7 7 7 7 7 7 6 6 6 6 6 5 5 5 5 5 3 2 5 4 4 3 3 4 4 4 4
4 5 6 6 6 6 6 6 6 7 7 7 7 7 7 7 7 7 6 6 6 6 5 4 4 4 5 5 2 2 4 4 3 3 4 4 5 4
5 6 6 6 6 7 7 7 6 7 6 7 7 7 7 7 7 6 6 7 7 6 5 5 4 4 4 5 5 4 3 3 3 3 3 3 3 3
6 6 6 7 7 7 7 7 7 7 7 7 6 7 7 7 6 6 6 7 7 6 6 5 5 5 4 3 3 3 2 1 0 2 4 4 3 3
6 6 6 7 7 7 7 7 7 7 7 7 7 6 6 6 7 7 7 6 6 6 7 5 5 4 4 3 3 3 2 1 2 2 1 3 4 3
6 6 6 6 7 7 7 8 8 7 7 8 7 7 7 7 6 6 7 6 6 7 7 6 5 4 4 3 3 2 2 2 1 1 2 2 1 2
Wind_Direction
277 279 279 280 276 276 273 272 276 283 283 281 277 275 277 272 261 256 255 215 212 224 230 233 237 239 241 242 242 242 241 236 232 232 230 228 230 231
283 287 288 287 284 274 272 271 269 273 280 286 282 279 284 284 257 263 258 225 220 223 226 228 231 234 237 238 237 237 238 237 234 232 230 228 227 229
295 293 290 293 290 284 276 276 273 271 276 280 279 277 272 275 276 271 264 256 239 210 214 222 227 231 233 235 234 234 234 234 234 233 232 229 228 228
298 296 294 292 286 282 284 284 283 279 276 281 282 278 269 266 266 269 270 264 263 212 206 216 224 227 230 232 233 233 233 231 231 231 231 230 228 228
300 297 295 294 291 292 290 289 287 282 277 275 277 277 273 271 276 276 275 275 271 241 209 211 219 224 227 229 229 229 230 228 227 227 229 230 230 227
299 295 295 297 296 299 293 291 292 291 283 277 278 280 276 275 277 280 280 273 273 275 269 246 222 218 223 225 226 226 226 225 225 225 226 228 228 226
302 303 300 299 301 298 302 307 301 294 293 289 285 286 289 297 289 289 289 288 279 268 276 265 246 239 225 219 221 226 226 225 224 224 224 224 224 222
309 312 303 286 307 283 283 287 290 292 302 298 294 298 298 296 300 291 291 289 291 284 280 278 267 260 251 240 214 212 220 222 222 224 224 222 219 217
317 318 318 345 335 331 312 279 275 261 264 285 295 298 299 301 299 289 283 282 286 290 283 279 271 262 259 247 198 201 210 216 220 222 221 217 213 212
319 330 331 336 0 339 322 319 313 308 289 279 289 290 293 298 289 282 281 278 273 261 250 267 269 267 262 249 199 206 213 215 217 218 217 214 212 212
335 354 344 341 14 342 321 320 318 317 297 278 278 277 277 271 272 283 285 286 285 278 259 262 267 271 265 252 216 203 214 217 215 215 214 212 209 209
342 358 56 8 357 339 325 327 327 328 321 311 292 272 269 258 233 257 284 287 290 288 284 274 268 271 270 257 250 227 218 214 214 214 212 208 201 211
343 344 28 28 338 319 311 324 326 313 308 312 314 321 323 317 304 296 289 283 284 285 291 286 279 275 272 273 262 250 244 237 221 215 209 204 200 211
337 343 10 2 318 299 310 335 317 306 317 329 333 335 332 327 325 318 304 285 274 278 282 282 277 281 279 275 270 260 252 239 228 224 219 197 201 209
334 351 332 309 305 303 308 305 305 324 335 332 331 330 328 325 317 310 306 295 280 274 273 273 276 277 273 272 272 267 264 256 238 225 219 215 209 206
318 299 251 259 282 322 333 332 342 349 337 333 334 332 330 327 325 325 318 316 305 298 287 277 273 270 272 273 270 267 266 258 241 229 225 229 223 219
327 331 348 355 357 0 360 0 356 350 345 344 339 337 337 337 336 335 326 320 315 312 309 303 289 275 274 274 269 266 263 260 254 241 228 231 234 227
322 356 359 359 358 356 356 356 356 355 349 343 342 341 339 339 338 335 330 328 325 319 318 319 309 293 282 277 276 276 278 274 264 244 237 233 234 229
347 6 2 1 358 356 355 352 351 353 347 345 346 343 341 339 337 336 336 335 335 328 325 322 313 303 297 301 304 295 289 281 269 261 252 246 243 238
9 6 4 359 358 356 354 351 349 348 349 346 345 343 341 339 338 337 339 340 335 328 326 326 325 322 313 310 308 301 286 273 274 268 263 256 253 222
7 5 3 359 357 355 354 352 348 346 347 343 344 343 341 338 338 337 337 337 329 331 331 328 327 310 293 290 288 297 315 69 305 278 278 265 255 246
3 1 1 358 355 352 351 350 348 347 346 345 345 343 341 337 336 336 336 335 336 336 329 322 320 317 315 312 311 312 321 328 127 119 23 306 280 267
3 357 355 357 357 351 347 348 349 348 350 347 344 343 341 340 337 336 335 337 340 338 335 334 337 338 335 327 316 315 324 336 341 8 23 32 170 201